Total_Precipitation_Accumulation
0.00 0.00 0.00 0.00 0.00 0.00 0.00 0.01 0.02 0.05 0.11 0.11 0.13 0.17 0.24 0.30 0.40 0.85 0.48 0.19 0.10 0.04 0.01 0.02 0.04 0.04 0.05 0.06 0.08 0.09 0.08 0.07 0.08 0.09 0.09 0.10 0.09 0.09 0.09 0.09 0.12 0.18 0.22 0.20 0.18 0.18 0.19 0.17 0.11
0.00 0.00 0.00 0.00 0.00 0.00 0.01 0.02 0.04 0.06 0.11 0.13 0.13 0.15 0.20 0.23 0.17 0.12 0.10 0.10 0.10 0.04 0.02 0.02 0.03 0.04 0.05 0.05 0.07 0.10 0.10 0.08 0.08 0.08 0.08 0.09 0.09 0.08 0.08 0.09 0.13 0.20 0.24 0.24 0.22 0.20 0.19 0.16 0.11
0.00 0.00 0.00 0.00 0.00 0.00 0.02 0.03 0.04 0.06 0.09 0.12 0.20 0.26 0.28 0.26 0.24 0.15 0.11 0.11 0.11 0.05 0.02 0.02 0.03 0.03 0.05 0.05 0.06 0.10 0.10 0.09 0.09 0.09 0.09 0.09 0.09 0.09 0.10 0.12 0.13 0.16 0.20 0.19 0.15 0.13 0.13 0.14 0.10
0.00 0.00 0.00 0.00 0.00 0.00 0.01 0.04 0.05 0.05 0.08 0.12 0.21 0.35 0.32 0.29 0.27 0.22 0.16 0.15 0.12 0.07 0.04 0.02 0.04 0.05 0.06 0.07 0.08 0.10 0.09 0.10 0.11 0.11 0.13 0.13 0.13 0.12 0.14 0.17 0.18 0.17 0.18 0.16 0.13 0.12 0.12 0.12 0.09
0.00 0.00 0.00 0.00 0.00 0.00 0.01 0.04 0.07 0.06 0.08 0.13 0.21 0.39 0.51 0.49 0.51 0.44 0.25 0.22 0.22 0.14 0.07 0.04 0.05 0.07 0.10 0.11 0.14 0.16 0.15 0.15 0.16 0.17 0.18 0.17 0.16 0.17 0.18 0.19 0.20 0.19 0.19 0.17 0.15 0.16 0.14 0.11 0.09
0.00 0.00 0.00 0.00 0.00 0.01 0.01 0.05 0.08 0.09 0.09 0.12 0.24 0.47 0.84 0.80 0.62 0.65 0.54 0.35 0.30 0.18 0.11 0.08 0.06 0.09 0.14 0.18 0.20 0.22 0.19 0.17 0.18 0.20 0.22 0.19 0.16 0.16 0.15 0.15 0.17 0.19 0.21 0.20 0.15 0.11 0.08 0.06 0.08
0.00 0.00 0.00 0.00 0.01 0.01 0.02 0.04 0.08 0.09 0.10 0.18 0.30 0.51 0.90 0.95 0.75 0.75 0.75 0.55 0.46 0.31 0.17 0.12 0.10 0.10 0.17 0.25 0.23 0.22 0.20 0.19 0.20 0.24 0.27 0.23 0.18 0.14 0.13 0.16 0.17 0.17 0.17 0.15 0.09 0.05 0.04 0.04 0.05
0.00 0.00 0.00 0.00 0.01 0.02 0.03 0.04 0.07 0.11 0.16 0.31 0.44 0.56 0.92 1.07 0.92 0.73 0.69 0.58 0.51 0.46 0.29 0.23 0.22 0.20 0.20 0.22 0.25 0.25 0.24 0.24 0.24 0.25 0.23 0.19 0.14 0.13 0.13 0.13 0.13 0.13 0.14 0.15 0.10 0.06 0.05 0.05 0.05
0.00 0.00 0.00 0.00 0.01 0.02 0.04 0.06 0.07 0.08 0.15 0.31 0.33 0.49 0.83 0.93 0.85 0.81 0.76 0.63 0.54 0.48 0.42 0.38 0.34 0.32 0.29 0.26 0.22 0.25 0.23 0.23 0.20 0.17 0.16 0.15 0.17 0.22 0.22 0.16 0.15 0.18 0.18 0.15 0.11 0.09 0.07 0.06 0.05
0.00 0.00 0.00 0.00 0.01 0.01 0.03 0.06 0.07 0.08 0.11 0.20 0.34 0.46 0.61 0.81 0.89 0.93 0.93 0.81 0.72 0.68 0.63 0.58 0.58 0.53 0.48 0.44 0.42 0.38 0.32 0.27 0.21 0.23 0.19 0.21 0.43 0.52 0.43 0.41 0.30 0.26 0.22 0.16 0.14 0.12 0.10 0.09 0.10
0.00 0.00 0.00 0.00 0.00 0.01 0.01 0.02 0.05 0.09 0.18 0.22 0.42 0.73 0.73 0.79 0.96 1.14 1.13 1.09 1.11 1.02 0.73 0.65 0.75 0.75 0.81 0.86 0.68 0.65 0.62 0.53 0.39 0.49 0.46 0.51 0.65 0.59 0.57 0.62 0.47 0.36 0.30 0.28 0.30 0.21 0.17 0.17 0.22
0.00 0.00 0.00 0.00 0.00 0.01 0.02 0.02 0.04 0.09 0.28 0.35 0.50 0.74 0.99 1.03 1.21 1.17 1.21 1.31 1.25 1.31 1.08 0.84 0.77 0.76 0.83 0.97 0.89 0.88 0.83 0.77 0.68 0.71 0.57 0.67 0.80 0.87 0.88 0.99 0.86 0.78 0.71 0.66 0.57 0.50 0.36 0.33 0.33
0.00 0.00 0.00 0.00 0.00 0.01 0.02 0.04 0.06 0.07 0.11 0.33 0.50 0.60 0.90 0.92 1.00 1.12 1.30 1.64 1.69 1.60 1.41 1.16 0.93 0.92 0.98 1.12 1.16 1.13 1.10 1.04 1.08 1.12 0.92 0.91 0.87 0.96 1.17 1.20 1.33 1.13 1.13 1.06 0.94 0.76 0.68 0.58 0.50
0.00 0.00 0.00 0.00 0.00 0.01 0.04 0.04 0.07 0.05 0.07 0.16 0.27 0.38 0.66 0.77 0.96 1.21 1.37 1.68 1.98 1.92 1.64 1.45 1.30 1.14 1.07 1.07 1.16 1.18 1.14 1.22 1.29 1.42 1.32 1.24 1.18 1.31 1.62 1.63 1.59 1.43 1.47 1.55 1.55 1.37 1.15 0.95 0.89
0.00 0.00 0.00 0.00 0.00 0.01 0.03 0.04 0.04 0.05 0.07 0.12 0.17 0.30 0.47 0.76 0.88 1.26 1.55 1.71 1.92 1.77 1.80 1.75 1.65 1.48 1.25 1.14 1.25 1.36 1.29 1.30 1.37 1.58 1.65 1.59 1.54 1.73 1.76 2.00 1.96 1.82 1.77 1.70 1.63 1.78 1.75 1.45 1.24
0.00 0.00 0.01 0.01 0.00 0.00 0.01 0.04 0.06 0.08 0.08 0.11 0.17 0.29 0.43 0.65 0.80 1.00 1.29 1.52 1.92 1.89 1.76 1.77 1.61 1.44 1.50 1.45 1.56 1.62 1.73 1.83 1.79 1.84 2.09 2.15 2.10 2.11 2.07 2.09 2.12 2.04 2.00 2.16 2.20 2.12 2.10 2.01 1.77
0.00 0.00 0.01 0.01 0.00 0.01 0.01 0.06 0.14 0.07 0.06 0.10 0.15 0.29 0.51 0.54 0.64 0.72 0.97 1.21 1.52 1.56 1.62 1.68 1.70 1.58 1.53 1.72 1.99 2.09 2.27 2.55 2.69 2.64 2.80 2.77 2.62 2.58 2.60 2.61 2.68 2.55 2.56 2.52 2.40 2.53 2.45 2.35 2.12
0.00 0.01 0.01 0.01 0.01 0.01 0.01 0.05 0.13 0.13 0.13 0.15 0.18 0.26 0.48 0.52 0.71 0.86 0.93 1.03 1.31 1.40 1.51 1.63 1.83 1.92 1.83 1.88 2.11 2.45 2.64 2.84 3.23 3.30 3.28 3.28 3.32 3.27 3.27 3.19 3.20 3.10 2.98 2.84 2.78 2.70 2.48 2.35 2.10
0.00 0.00 0.01 0.01 0.01 0.00 0.02 0.06 0.11 0.14 0.16 0.23 0.26 0.30 0.38 0.56 0.87 1.06 1.14 1.24 1.43 1.62 1.87 1.84 1.90 2.07 2.25 2.52 2.53 2.71 3.07 3.46 3.69 3.87 3.97 3.93 3.82 3.76 3.58 3.46 3.48 3.31 3.13 2.94 2.81 2.68 2.56 2.27 2.03
0.00 0.00 0.01 0.02 0.01 0.01 0.04 0.12 0.17 0.18 0.19 0.25 0.34 0.36 0.37 0.48 0.75 1.10 1.19 1.40 1.60 1.76 1.97 2.09 2.15 2.47 2.93 3.33 3.77 4.18 4.47 4.48 4.62 4.66 4.64 4.49 4.34 4.16 3.92 3.87 3.73 3.47 3.28 3.03 2.79 2.61 2.55 2.32 2.14
0.00 0.00 0.01 0.02 0.03 0.05 0.08 0.23 0.30 0.29 0.31 0.36 0.39 0.40 0.44 0.58 0.79 0.98 1.15 1.41 1.62 1.78 1.99 2.14 2.42 3.06 3.85 4.23 4.56 5.11 5.44 5.26 5.05 4.82 4.74 4.65 4.63 4.58 4.33 4.17 3.90 3.62 3.31 3.03 2.76 2.55 2.45 2.36 2.22
0.00 0.01 0.01 0.03 0.04 0.08 0.11 0.29 0.46 0.48 0.50 0.44 0.47 0.52 0.59 0.70 0.85 1.01 1.18 1.40 1.71 2.00 2.07 2.25 2.75 3.50 4.17 4.64 5.19 5.72 5.95 5.97 5.82 5.33 4.89 4.46 4.11 3.92 3.78 3.66 3.48 3.24 2.93 2.71 2.49 2.29 2.19 2.24 2.12
0.01 0.00 0.01 0.03 0.05 0.08 0.10 0.26 0.58 0.70 0.74 0.70 0.70 0.68 0.66 0.70 0.86 0.98 1.10 1.29 1.49 1.77 2.14 2.40 2.94 3.62 4.30 4.98 5.63 6.02 6.23 6.22 5.81 5.01 4.27 3.82 3.51 3.23 3.01 2.88 2.76 2.60 2.43 2.26 2.14 2.06 1.94 1.88 1.78
0.01 0.01 0.01 0.03 0.05 0.10 0.10 0.23 0.65 0.97 1.08 1.07 0.97 0.91 0.79 0.68 0.72 0.83 0.99 1.07 1.35 1.63 1.94 2.36 2.67 3.30 3.97 4.55 5.04 5.21 5.37 5.33 4.92 4.44 3.92 3.52 3.07 2.57 2.21 2.02 1.92 1.82 1.73 1.70 1.68 1.66 1.62 1.56 1.52
0.01 0.02 0.08 0.14 0.18 0.18 0.13 0.26 0.70 1.05 1.07 1.01 0.99 0.98 0.88 0.70 0.70 0.88 1.09 1.02 1.24 1.55 1.88 2.27 2.67 3.06 3.55 4.05 4.50 4.74 4.87 4.69 4.24 3.82 3.41 2.95 2.50 2.08 1.73 1.53 1.44 1.41 1.36 1.29 1.30 1.31 1.28 1.27 1.28
0.01 0.03 0.14 0.25 0.29 0.31 0.31 0.52 0.89 0.99 0.93 0.87 0.84 0.80 0.78 0.76 0.74 0.82 0.97 1.02 1.24 1.45 1.74 2.09 2.41 2.73 2.92 3.10 3.42 3.64 3.79 3.65 3.33 2.88 2.43 2.15 1.90 1.64 1.42 1.27 1.19 1.06 0.94 0.91 0.95 0.99 1.01 1.01 1.09
0.02 0.04 0.10 0.12 0.15 0.32 0.59 0.83 1.13 1.09 0.92 0.88 0.82 0.76 0.77 0.77 0.74 0.78 0.90 0.99 1.19 1.47 1.72 1.97 2.10 2.26 2.41 2.51 2.56 2.61 2.72 2.62 2.39 2.12 1.85 1.59 1.35 1.16 1.02 0.90 0.82 0.77 0.71 0.69 0.72 0.76 0.79 0.83 0.90
0.03 0.04 0.06 0.10 0.24 0.42 0.67 1.06 1.34 1.47 1.33 1.12 0.90 0.83 0.77 0.80 0.78 0.78 0.84 0.89 0.97 1.10 1.35 1.57 1.68 1.75 1.80 1.85 1.89 1.91 1.92 1.84 1.75 1.59 1.40 1.18 1.03 0.88 0.75 0.64 0.57 0.56 0.58 0.59 0.56 0.58 0.60 0.63 0.69
0.04 0.05 0.07 0.11 0.15 0.34 0.69 1.27 1.49 1.73 1.76 1.45 1.10 0.97 0.93 0.93 0.86 0.81 0.80 0.76 0.79 0.84 0.98 1.17 1.30 1.33 1.39 1.46 1.43 1.38 1.44 1.39 1.31 1.26 1.17 1.03 0.92 0.81 0.71 0.63 0.59 0.57 0.53 0.50 0.51 0.50 0.52 0.57 0.59
0.05 0.08 0.12 0.20 0.21 0.24 0.59 1.43 1.82 1.93 1.81 1.48 1.25 1.12 1.07 0.98 0.85 0.76 0.70 0.62 0.64 0.69 0.73 0.82 0.92 0.92 0.97 1.01 1.02 1.07 1.11 1.13 1.08 0.99 0.89 0.75 0.66 0.62 0.58 0.52 0.52 0.53 0.50 0.48 0.47 0.44 0.43 0.42 0.42